Погода в Петровке

Украина / Одесская область     46°54′28″N   30°43′16″E
темп.,
°C
ветер,
м/с
пор.,
м/с
влажн.,
%
обл.,
%
осадки,
мм/ч
давл.,
гПа
погр.,
м
23 октября, сб
сб2300:00+15зюз466198 0.0 101593
03:00+14сз4952100 0.0 1016185
06:00+14ссз3551100 0.0 1016122
09:00+14сз2353100 0.0 1017104
12:00+16зсз4552100 0.1 1018742
15:00+17сз454629 0.1 10181542
18:00+14с575834 0.1 1020542
21:00+12ссз245149 0.1 1021124
24 октября, вс
вс2400:00+10с3744100 0.0 1023203
03:00+9ссз4845100 0.0 1024244
06:00+6ссз495479 0.0 1024233
09:00+8ссз611561 0.0 1026676
12:00+10ссз8104711 0.0 10261409
15:00+11ссз8103977 0.0 10262026
18:00+9ссз71047100 0.0 10281082
21:00+7ссз511595 0.0 1030390
25 октября, пн
пн2500:00+5с386820 0.0 1031246
03:00+6ссз3658100 0.0 1032640
06:00+4сз366513 0.0 1033124
09:00+5ссв46645 0.0 1034296
12:00+8ссв34455 0.0 10341090
15:00+10св23381 0.0 10331262
18:00+7св22440 0.0 103212
21:00+6в22490 0.0 103322
26 октября, вт
вт2600:00+4вюв22520 0.0 103318
03:00+3вюв23581 0.0 103223
06:00+3вюв34640 0.0 103252
09:00+5вюв47525 0.0 1031201
12:00+10юв56380 0.0 1031946
15:00+11ююв55420 0.0 10291060
18:00+7ююв35620 0.0 102873
21:00+6юв23710 0.0 102825
27 октября, ср
ср2700:00+5вюв33730 0.0 102741
03:00+4вюв34870 0.0 102762
06:00+3вюв34899 0.0 102663
09:00+5вюв237899 0.0 1026109
12:00+10ююв1161100 0.0 1026591
15:00+12зюз2253100 0.0 1024945
18:00+9сз116392 0.0 102410
21:00+8юз116863 0.0 102510